Weather History for Branson, MO

Change the Weather History Date:

Tuesday, April 9, 2013

  Actual Average (KHRO) Record (KHRO)
Temperature  
Mean Temperature 68 °F 56 °F  
Max Temperature 77 °F 68 °F 90 °F (1930)
Min Temperature 59 °F 45 °F 21 °F (1914)
Degree Days  
Heating Degree Days 0 10  
Month to date heating degree days 96  
Since 1 July heating degree days 3776  
Cooling Degree Days 3 1  
Month to date cooling degree days 9  
Year to date cooling degree days 15  
Growing Degree Days 18 (Base 50)    
Moisture  
Dew Point 56 °F    
Average Humidity 71    
Maximum Humidity 88    
Minimum Humidity 47    
Precipitation  
Precipitation 0.00 in 0.13 in 2.40 in (1915)
Month to date precipitation 1.11  
Year to date precipitation 10.10  
Snow  
Snow 0.00 in 0.00 in 2.00 in (1938)
Month to date snowfall 0.3  
Since 1 July snowfall 11.5  
Snow Depth -    
Sea Level Pressure  
Sea Level Pressure 29.80 in    
Wind  
Wind Speed 9 mph (SE)    
Max Wind Speed 17 mph    
Max Gust Speed 26 mph    
Visibility 10 miles    
Events      
T = Trace of Precipitation, MM = Missing Value Source: NWS Daily Summary

Daily Weather History Graph

Daily Weather History Graph

Search for Another Location

Airport:

Trip Planner

Search our weather history database for the weather conditions in past years. The results will help you decide how hot, cold, wet, or windy it might be!

Date:

Astronomy

Apr. 09, 2013 Rise Set
Actual Time 6:46 AM CDT 7:42 PM CDT
Civil Twilight 6:20 AM CDT 8:08 PM CDT
Nautical Twilight 5:49 AM CDT 8:39 PM CDT
Astronomical Twilight 5:17 AM CDT 9:12 PM CDT
Moon 6:09 AM CDT (4/9) 7:18 PM CDT (4/9)
Length of Visible Light 13h 47m
Length of Day
12h 55m
Waning Crescent, 1% of the Moon is Illuminated
Apr 9
Waning Crescent
Apr 10
New
Apr 18
First Quarter
Apr 25
Full
May 2
Last Quarter

Hourly Weather History & Observations

Time (CDT) Temp. Dew Point Humidity Pressure Visibility Wind Dir Wind Speed Gust Speed Precip Events Conditions
12:15 AM 62.6 °F 57.2 °F 82% 29.79 in 10.0 mi ESE 9.2 mph - N/A   Clear
12:35 AM 62.6 °F 55.4 °F 77% 29.79 in 10.0 mi ESE 8.1 mph - N/A   Clear
12:55 AM 62.6 °F 55.4 °F 77% 29.79 in 10.0 mi ESE 8.1 mph - N/A   Partly Cloudy
1:15 AM 62.6 °F 55.4 °F 77% 29.79 in 10.0 mi ESE 6.9 mph - N/A   Mostly Cloudy
1:35 AM 60.8 °F 55.4 °F 82% 29.80 in 10.0 mi SE 5.8 mph - N/A   Overcast
1:55 AM 59.0 °F 55.4 °F 88% 29.80 in 10.0 mi ESE 6.9 mph - N/A   Overcast
2:15 AM 60.8 °F 55.4 °F 82% 29.79 in 10.0 mi SE 8.1 mph - N/A   Mostly Cloudy
2:35 AM 62.6 °F 55.4 °F 77% 29.79 in 10.0 mi SE 8.1 mph - N/A   Mostly Cloudy
2:55 AM 60.8 °F 55.4 °F 82% 29.79 in 10.0 mi SSE 5.8 mph - N/A   Mostly Cloudy
3:15 AM 62.6 °F 55.4 °F 77% 29.78 in 10.0 mi SSE 8.1 mph - N/A   Overcast
3:35 AM 60.8 °F 55.4 °F 82% 29.78 in 10.0 mi SE 6.9 mph - N/A   Overcast
3:55 AM 60.8 °F 55.4 °F 82% 29.78 in 10.0 mi SE 5.8 mph - N/A   Overcast
4:15 AM 60.8 °F 55.4 °F 82% 29.78 in 10.0 mi SE 9.2 mph - N/A   Overcast
4:35 AM 60.8 °F 55.4 °F 82% 29.79 in 10.0 mi SE 8.1 mph - N/A   Mostly Cloudy
4:55 AM 60.8 °F 55.4 °F 82% 29.78 in 10.0 mi SE 8.1 mph - N/A   Overcast
5:15 AM 60.8 °F 53.6 °F 77% 29.79 in 10.0 mi SE 8.1 mph - N/A   Overcast
5:35 AM 60.8 °F 53.6 °F 77% 29.79 in 10.0 mi SE 9.2 mph - N/A   Overcast
5:55 AM 60.8 °F 53.6 °F 77% 29.79 in 10.0 mi SSE 11.5 mph - N/A   Overcast
6:15 AM 60.8 °F 53.6 °F 77% 29.80 in 10.0 mi SSE 8.1 mph - N/A   Overcast
6:35 AM 60.8 °F 53.6 °F 77% 29.79 in 10.0 mi SSE 11.5 mph - N/A   Mostly Cloudy
6:51 AM 60.8 °F 53.6 °F 77% 29.80 in 10.0 mi SSE 9.2 mph - N/A   Partly Cloudy
7:48 AM 62.6 °F 55.4 °F 77% 29.81 in 10.0 mi SE 9.2 mph - N/A   Overcast
8:48 AM 64.4 °F 55.4 °F 73% 29.82 in 10.0 mi SSE 8.1 mph - N/A   Overcast
9:47 AM 64.4 °F 57.2 °F 77% 29.84 in 10.0 mi SE 13.8 mph - N/A   Overcast
10:46 AM 66.2 °F 59.0 °F 78% 29.86 in 10.0 mi SSE 11.5 mph 17.3 mph N/A   Overcast
11:55 AM 66.2 °F 59.0 °F 78% 29.86 in 10.0 mi SE 11.5 mph - N/A   Overcast
12:50 PM 68.0 °F 59.0 °F 73% 29.85 in 10.0 mi SSE 11.5 mph 18.4 mph N/A   Overcast
1:51 PM 73.4 °F 59.0 °F 61% 29.83 in 10.0 mi SSE 13.8 mph 19.6 mph N/A   Mostly Cloudy
2:55 PM 75.2 °F 59.0 °F 57% 29.81 in 10.0 mi SSE 10.4 mph 18.4 mph N/A   Mostly Cloudy
3:55 PM 77.0 °F 59.0 °F 54% 29.80 in 10.0 mi SE 9.2 mph - N/A   Mostly Cloudy
4:45 PM 77.0 °F 57.2 °F 50% 29.78 in 10.0 mi SSE 12.7 mph - N/A   Mostly Cloudy
5:45 PM 77.0 °F 57.2 °F 50% 29.78 in 10.0 mi SSE 11.5 mph 23.0 mph N/A   Mostly Cloudy
6:45 PM 77.0 °F 55.4 °F 47% 29.78 in 10.0 mi SSE 17.3 mph 26.5 mph N/A   Scattered Clouds
7:45 PM 75.2 °F 53.6 °F 47% 29.81 in 10.0 mi SSE 9.2 mph 17.3 mph N/A   Scattered Clouds
8:45 PM 71.6 °F 55.4 °F 57% 29.79 in 10.0 mi SE 8.1 mph - N/A   Partly Cloudy
9:15 PM 69.8 °F 55.4 °F 60% 29.81 in 10.0 mi SSE 6.9 mph - N/A   Clear
9:55 PM 71.6 °F 57.2 °F 60% 29.81 in 10.0 mi SSE 6.9 mph - N/A   Partly Cloudy
10:15 PM 71.6 °F 57.2 °F 60% 29.82 in 10.0 mi South 4.6 mph - N/A   Partly Cloudy
10:35 PM 69.8 °F 57.2 °F 64% 29.81 in 10.0 mi SSE 8.1 mph - N/A   Scattered Clouds
10:55 PM 71.6 °F 57.2 °F 60% 29.81 in 10.0 mi SSE 9.2 mph - N/A   Mostly Cloudy
11:15 PM 69.8 °F 59.0 °F 68% 29.80 in 10.0 mi SSE 8.1 mph - N/A   Mostly Cloudy
11:35 PM 71.6 °F 59.0 °F 64% 29.79 in 10.0 mi SSE 12.7 mph 20.7 mph N/A   Scattered Clouds
11:55 PM 71.6 °F 59.0 °F 64% 29.77 in 10.0 mi SSE 12.7 mph 20.7 mph N/A   Scattered Clouds